• In Netherlands
  • List of Countries
  • For 7 days
  • Water Temperature
  • Satellite Maps
  • Weather Map
  • Weather Widgets
  • user-avatar
    Login

    Hourly Weather La Massana

    Today, 26 February, Sunday

    Time Temperature Precipitation Wind Pressure Humidity
    00:00 -3°C° 0 mm 1 mps 609 mmHg 78%
    01:00 -3°C° 0 mm 1 mps 609 mmHg 76%
    02:00 -3°C° 0 mm 1 mps 609 mmHg 74%
    03:00 -3°C° 0 mm 1 mps 609 mmHg 72%
    04:00 -3°C° 0 mm 1 mps 609 mmHg 71%
    05:00 -3°C° 0 mm 1 mps 608 mmHg 71%
    06:00 -4°C° 0 mm 1 mps 608 mmHg 71%
    07:00 -1°C° 0 mm 1 mps 610 mmHg 66%
    08:00 +1°C° 0 mm 1 mps 611 mmHg 60%
    09:00 +3°C° 0 mm 0 mps 612 mmHg 54%
    10:00 +5°C° 0 mm 1 mps 613 mmHg 53%
    11:00 +7°C° 0 mm 1 mps 613 mmHg 53%
    12:00 +8°C° 0 mm 1 mps 614 mmHg 54%
    13:00 +8°C° 0 mm 1 mps 613 mmHg 56%
    14:00 +8°C° 0 mm 1 mps 613 mmHg 59%
    15:00 +6°C° 0 mm 2 mps 612 mmHg 62%
    16:00 +5°C° 0 mm 1 mps 611 mmHg 71%
    17:00 +2°C° 0 mm 1 mps 609 mmHg 81%
    18:00 -1°C° 0 mm 1 mps 608 mmHg 91%
    19:00 -2°C° 0 mm 1 mps 608 mmHg 91%
    20:00 -2°C° 0 mm 1 mps 608 mmHg 91%
    21:00 -4°C° 0 mm 0 mps 607 mmHg 91%
    22:00 -3°C° 0 mm 1 mps 607 mmHg 90%
    23:00 -3°C° 0 mm 1 mps 607 mmHg 90%

    Tomorrow, 27 February, Monday

    Time Temperature Precipitation Wind Pressure Humidity
    00:00 -3°C° 0 mm 1 mps 607 mmHg 89%
    01:00 -3°C° 0 mm 1 mps 606 mmHg 87%
    02:00 -3°C° 0 mm 1 mps 606 mmHg 86%
    03:00 -3°C° 0 mm 1 mps 605 mmHg 85%
    04:00 -3°C° 0 mm 1 mps 605 mmHg 84%
    05:00 -3°C° 0 mm 1 mps 605 mmHg 84%
    06:00 -3°C° 0 mm 1 mps 604 mmHg 83%
    07:00 -1°C° 0 mm 1 mps 606 mmHg 77%
    08:00 +1°C° 0 mm 2 mps 607 mmHg 70%
    09:00 +3°C° 0 mm 2 mps 608 mmHg 64%
    10:00 +4°C° 0 mm 2 mps 608 mmHg 59%
    11:00 +6°C° 0 mm 2 mps 608 mmHg 55%
    12:00 +7°C° 0 mm 3 mps 608 mmHg 50%
    13:00 +7°C° 0 mm 3 mps 608 mmHg 51%
    14:00 +7°C° 0 mm 3 mps 607 mmHg 51%
    15:00 +7°C° 0 mm 3 mps 607 mmHg 52%
    16:00 +4°C° 0 mm 2 mps 606 mmHg 63%
    17:00 +2°C° 0 mm 2 mps 605 mmHg 75%
    18:00 0°C° 0 mm 1 mps 604 mmHg 86%
    19:00 -1°C° 0 mm 1 mps 604 mmHg 86%
    20:00 -1°C° 0 mm 1 mps 604 mmHg 87%
    21:00 -1°C° 0 mm 1 mps 604 mmHg 88%
    22:00 -2°C° 0 mm 1 mps 604 mmHg 88%
    23:00 -2°C° 0 mm 1 mps 604 mmHg 89%

    Day after tomorrow, 28 February, Tuesday

    Time Temperature Precipitation Wind Pressure Humidity
    00:00 -2°C° 0 mm 1 mps 603 mmHg 90%
    01:00 -2°C° 0 mm 1 mps 603 mmHg 90%
    02:00 -2°C° 0 mm 1 mps 603 mmHg 90%
    03:00 -3°C° 0 mm 1 mps 602 mmHg 90%
    04:00 -3°C° 0 mm 1 mps 602 mmHg 90%
    05:00 -3°C° 0 mm 1 mps 602 mmHg 90%
    06:00 -3°C° 0 mm 1 mps 602 mmHg 89%
    07:00 -1°C° 0 mm 1 mps 603 mmHg 82%
    08:00 -1°C° 0 mm 2 mps 604 mmHg 74%
    09:00 +2°C° 0 mm 2 mps 605 mmHg 67%
    10:00 +2°C° 0 mm 3 mps 605 mmHg 63%
    11:00 +3°C° 0 mm 4 mps 605 mmHg 60%
    12:00 +3°C° 0 mm 5 mps 606 mmHg 57%
    13:00 +3°C° 0.5 mm 4 mps 605 mmHg 63%
    14:00 +1°C° 0.5 mm 4 mps 605 mmHg 69%
    15:00 0°C° 0.5 mm 4 mps 605 mmHg 76%
    16:00 -1°C° 0.4 mm 4 mps 605 mmHg 79%
    17:00 -1°C° 0.4 mm 3 mps 605 mmHg 82%
    18:00 -2°C° 0.4 mm 3 mps 605 mmHg 85%
    19:00 -4°C° 0 mm 3 mps 605 mmHg 85%
    20:00 -4°C° 0 mm 2 mps 605 mmHg 86%
    21:00 -5°C° 0 mm 2 mps 605 mmHg 86%
    22:00 -5°C° 0 mm 2 mps 605 mmHg 85%
    23:00 -6°C° 0 mm 2 mps 605 mmHg 85%

    1 March, Wednesday

    Time Temperature Precipitation Wind Pressure Humidity
    00:00 -6°C° 0 mm 2 mps 605 mmHg 84%
    01:00 -6°C° 0 mm 2 mps 606 mmHg 83%
    02:00 -6°C° 0 mm 2 mps 606 mmHg 83%
    03:00 -6°C° 0 mm 2 mps 606 mmHg 82%
    04:00 -4°C° 0 mm 1 mps 606 mmHg 83%
    05:00 -3°C° 0 mm 1 mps 607 mmHg 84%
    06:00 -3°C° 0 mm 1 mps 607 mmHg 85%
    07:00 -1°C° 0 mm 1 mps 608 mmHg 80%
    08:00 +1°C° 0 mm 1 mps 609 mmHg 75%
    09:00 +2°C° 0 mm 1 mps 610 mmHg 71%
    10:00 +4°C° 0 mm 1 mps 611 mmHg 67%
    11:00 +5°C° 0 mm 1 mps 611 mmHg 63%
    12:00 +6°C° 0 mm 2 mps 612 mmHg 59%
    13:00 +6°C° 0 mm 2 mps 611 mmHg 62%
    14:00 +5°C° 0 mm 2 mps 611 mmHg 65%
    15:00 +5°C° 0 mm 2 mps 611 mmHg 68%
    16:00 +3°C° 0 mm 2 mps 610 mmHg 76%
    17:00 +3°C° 0 mm 1 mps 609 mmHg 84%
    18:00 +1°C° 0 mm 1 mps 609 mmHg 92%
    19:00 0°C° 0 mm 1 mps 609 mmHg 93%
    20:00 0°C° 0 mm 1 mps 609 mmHg 94%
    21:00 -1°C° 0 mm 1 mps 609 mmHg 94%
    22:00 -1°C° 0 mm 1 mps 609 mmHg 94%
    23:00 -1°C° 0 mm 1 mps 609 mmHg 93%

    2 March, Thursday

    Time Temperature Precipitation Wind Pressure Humidity
    00:00 -2°C° 0 mm 1 mps 608 mmHg 93%
    01:00 -2°C° 0 mm 1 mps 608 mmHg 92%
    02:00 -3°C° 0 mm 0 mps 608 mmHg 92%
    03:00 -3°C° 0 mm 0 mps 608 mmHg 91%
    04:00 -3°C° 0 mm 0 mps 608 mmHg 92%
    05:00 -4°C° 0 mm 0 mps 608 mmHg 92%
    06:00 -4°C° 0 mm 0 mps 608 mmHg 92%
    07:00 0°C° 0 mm 1 mps 609 mmHg 86%
    08:00 +2°C° 0 mm 1 mps 610 mmHg 79%
    09:00 +5°C° 0 mm 1 mps 611 mmHg 72%
    10:00 +5°C° 0 mm 2 mps 611 mmHg 67%
    11:00 +6°C° 0 mm 2 mps 612 mmHg 62%
    12:00 +7°C° 0 mm 3 mps 612 mmHg 57%
    13:00 +8°C° 0 mm 3 mps 611 mmHg 56%
    14:00 +8°C° 0 mm 3 mps 611 mmHg 56%
    15:00 +8°C° 0 mm 3 mps 610 mmHg 55%
    16:00 +5°C° 0 mm 2 mps 609 mmHg 66%
    17:00 +2°C° 0 mm 2 mps 608 mmHg 76%
    18:00 +1°C° 0 mm 1 mps 606 mmHg 87%
    19:00 0°C° 0 mm 1 mps 606 mmHg 85%
    20:00 0°C° 0 mm 1 mps 606 mmHg 83%
    21:00 -1°C° 0 mm 1 mps 606 mmHg 81%
    22:00 -3°C° 0 mm 2 mps 606 mmHg 81%
    23:00 -3°C° 0 mm 2 mps 605 mmHg 80%

    3 March, Friday

    Time Temperature Precipitation Wind Pressure Humidity
    00:00 -3°C° 0 mm 2 mps 605 mmHg 80%
    01:00 -2°C° 0 mm 2 mps 605 mmHg 82%
    02:00 -2°C° 0 mm 2 mps 604 mmHg 83%
    03:00 -2°C° 0 mm 2 mps 604 mmHg 85%
    04:00 -2°C° 0 mm 2 mps 604 mmHg 85%
    05:00 -2°C° 0 mm 2 mps 604 mmHg 86%
    06:00 -3°C° 0 mm 2 mps 604 mmHg 87%
    07:00 -1°C° 0 mm 2 mps 605 mmHg 80%
    08:00 +2°C° 0 mm 2 mps 605 mmHg 73%
    09:00 +4°C° 0 mm 2 mps 606 mmHg 66%
    10:00 +5°C° 0 mm 2 mps 607 mmHg 62%
    11:00 +5°C° 0 mm 3 mps 607 mmHg 58%
    12:00 +7°C° 0 mm 3 mps 607 mmHg 54%
    13:00 +5°C° 0.1 mm 3 mps 607 mmHg 56%
    14:00 +5°C° 0.1 mm 3 mps 606 mmHg 58%
    15:00 +6°C° 0.1 mm 2 mps 606 mmHg 60%
    16:00 +4°C° 0 mm 2 mps 604 mmHg 69%
    17:00 +2°C° 0 mm 2 mps 603 mmHg 79%
    18:00 -2°C° 0 mm 2 mps 602 mmHg 88%
    19:00 -2°C° 0 mm 2 mps 602 mmHg 87%
    20:00 -3°C° 0 mm 2 mps 601 mmHg 85%
    21:00 -3°C° 0 mm 2 mps 601 mmHg 84%
    22:00 -3°C° 0 mm 2 mps 601 mmHg 83%
    23:00 -2°C° 0 mm 3 mps 600 mmHg 82%
    Show more